[[{"header":{"parameterUnit":"m.s-1","parameterCategory":1,"la1":30.2991,"la2":30.254,"lo1":-89.0895,"lo2":-89.0444,"dy":0.0017,"dx":0.0017,"nx":28,"ny":28,"refTime":"2024-02-15T03:00:00:Z","depth":0,"parameterNumber":2,"parameterNumberName":"U-component_of_WINDS"},"data":[0,0,0,0,0,0,0,0,0,0,0,0,0,0,0,0,0,0,0,0,0,0,0,0,0,0,0,0,0,0,0,0,0,0,0,0,0,0,0,0,0,0,0,0,0,0,0,0,0,0,0,0,0,0,0,0,0,0,0.5548,0.5548,0,0.5566,0.5567,0.5567,0.5583,0.5583,0.5583,0.5584,0.56,0.5601,0.5601,0,0,0,0,0,0,0,0,0,0,0,0,0,0.5524,0.5525,0.5548,0.5548,0.5549,0.5566,0.5567,0.5567,0.5583,0.5583,0.5583,0.5584,0.56,0.5601,0.5601,0,0,0,0,0,0,0,0,0,0,0,0,0,0.5538,0.5525,0.5548,0.5559,0.556,0.5566,0.5567,0.5567,0.5583,0.5583,0.5583,0.5584,0.56,0.56,0.5601,0.5598,0,0,0.5602,0.5602,0,0,0,0,0,0,0,0,0.5537,0.5539,0.5557,0.5558,0.5559,0.5573,0.5564,0.5577,0.5583,0.5574,0.5584,0.5584,0.5591,0.5592,0.5595,0.5598,0.5599,0.5602,0.5602,0.5603,0.5603,0,0,0,0,0,0,0,0.5536,0.5538,0.5555,0.5557,0.5559,0.5562,0.5564,0.5567,0.5581,0.5575,0.5576,0.5578,0.5591,0.5594,0.5595,0.5599,0.5602,0.5602,0.5603,0.5603,0.5599,0.5599,0,0,0,0,0,0,0.5534,0.5537,0.5555,0.5556,0.5549,0.5562,0.5565,0.5568,0.5581,0.5583,0.5578,0.5579,0.5593,0.5595,0.5596,0.5592,0.5603,0.5603,0.5603,0.56,0.5599,0.5599,0,0,0,0,0,0,0.5533,0.5535,0.5554,0.5547,0.555,0.5562,0.5566,0.5568,0.5571,0.5583,0.5585,0.5578,0.5594,0.5595,0.5597,0.5593,0.5603,0.5603,0.56,0.56,0.5599,0.5584,0,0,0,0,0,0,0.5533,0.5535,0.5535,0.5547,0.555,0.5556,0.5566,0.5569,0.5572,0.5574,0.5584,0.5586,0.5594,0.5596,0.5597,0.5593,0.5604,0.5601,0.56,0.5599,0.5585,0.5583,0.5582,0,0,0,0,0,0.5532,0.553,0.5535,0.5537,0.555,0.5555,0.5557,0.5567,0.5572,0.5571,0.5578,0.5586,0.5593,0.5596,0.5597,0.5594,0.5601,0.56,0.5599,0.5586,0.5584,0.5582,0,0,0,0,0,0,0.5517,0.5532,0.5537,0.5539,0.5546,0.5558,0.5558,0.5564,0.5569,0.557,0.5582,0.5584,0.5584,0.5589,0.5592,0.559,0.5598,0.5597,0.5587,0.5585,0.5583,0.5582,0.5604,0,0,0,0,0,0.5514,0.5518,0.553,0.5531,0.5534,0.5545,0.5548,0.5555,0.5562,0.5565,0.5572,0.5578,0.5581,0.5584,0.5588,0.5586,0.5588,0.5584,0.5582,0.5581,0.558,0.5578,0.5576,0.5597,0.5597,0.5597,0,0,0.5507,0.5516,0.5518,0.5528,0.5534,0.5537,0.5547,0.555,0.5552,0.5565,0.5567,0.5572,0.5579,0.5579,0.5579,0.5583,0.5574,0.558,0.5578,0.5578,0.5577,0.5575,0.5573,0.5596,0.5596,0.5596,0,0,0.5497,0.5504,0.5505,0.5511,0.552,0.5527,0.5527,0.5538,0.5542,0.5544,0.5553,0.5555,0.5561,0.5566,0.5569,0.5559,0.5565,0.556,0.555,0.5548,0.5547,0.5545,0.554,0.5539,0.5559,0.5559,0.5559,0,0.5488,0.5493,0.5504,0.5506,0.551,0.5522,0.5522,0.5526,0.5536,0.5538,0.5542,0.5549,0.5555,0.5555,0.5552,0.5555,0.5554,0.5558,0.5546,0.5545,0.5544,0.5539,0.5537,0.5558,0.5558,0.5558,0.5558,0,0.5481,0.5484,0.5484,0.5493,0.5496,0.5497,0.5507,0.5509,0.5515,0.5522,0.5523,0.553,0.5535,0.5536,0.5542,0.5536,0.5538,0.5544,0.5552,0.5541,0.5536,0.5535,0.5557,0.5557,0.5557,0.5558,0,0,0.5463,0.5477,0.5476,0.548,0.549,0.5492,0.5493,0.5498,0.5499,0.5505,0.5505,0.5509,0.5515,0.5518,0.5525,0.5523,0.5512,0.5529,0.5529,0.5525,0.5505,0.55,0.5497,0.5517,0.5517,0.5517,0.5504,0,0.5453,0.5456,0.5465,0.5465,0.5467,0.5478,0.5478,0.5484,0.549,0.5492,0.5498,0.55,0.5508,0.5509,0.5508,0.5514,0.5509,0.5515,0.5516,0.5516,0.5513,0.5496,0.549,0.5478,0.5502,0.5502,0.5502,0,0.5444,0.5448,0.5448,0.5457,0.5458,0.5458,0.5463,0.5465,0.5471,0.5475,0.5478,0.5486,0.5486,0.5493,0.5492,0.5497,0.5497,0.55,0.55,0.55,0.5508,0.5494,0.5475,0.5472,0.55,0.55,0.55,0,0.5429,0.5435,0.5436,0.5438,0.5449,0.5448,0.5453,0.5459,0.5461,0.5465,0.5466,0.5469,0.5471,0.5473,0.548,0.5485,0.5478,0.5487,0.5481,0.548,0.5478,0.5478,0.5458,0.548,0.548,0.548,0.548,0,0.5417,0.5416,0.5429,0.5429,0.5428,0.5438,0.5436,0.5441,0.5446,0.5447,0.5456,0.5456,0.5466,0.5467,0.5473,0.547,0.5471,0.5474,0.5475,0.5472,0.5472,0.5473,0.5473,0.548,0.548,0.548,0.548,0,0.5401,0.5409,0.541,0.5419,0.5422,0.542,0.5428,0.5428,0.5433,0.5434,0.5434,0.5443,0.5444,0.5452,0.5455,0.5458,0.5454,0.5457,0.5452,0.5452,0.5445,0.5445,0.5424,0.5421,0.5446,0.5446,0.5446,0,0.5393,0.5392,0.5401,0.5402,0.5406,0.5408,0.5409,0.5419,0.542,0.5426,0.5424,0.5426,0.5428,0.543,0.5436,0.5437,0.544,0.5433,0.5441,0.5437,0.5439,0.5438,0.5438,0.5431,0.543,0.543,0.543,0,0.5377,0.5381,0.5384,0.5387,0.5389,0.5392,0.5396,0.5396,0.5406,0.5407,0.5408,0.541,0.5412,0.5414,0.5416,0.5419,0.5426,0.5427,0.5426,0.5423,0.5419,0.542,0.5446,0.5428,0.5428,0.5428,0.5428,0.5428,0.5364,0.5363,0.5369,0.5371,0.5375,0.5378,0.5378,0.5383,0.5384,0.5387,0.5393,0.5393,0.5397,0.5401,0.5403,0.5403,0.5407,0.5405,0.5404,0.5403,0.5401,0.542,0.5404,0.5404,0.5404,0.5404,0.5404,0,0.5348,0.5352,0.5353,0.5358,0.5359,0.5366,0.537,0.537,0.537,0.5374,0.5375,0.5376,0.5377,0.5382,0.5383,0.5382,0.5384,0.5382,0.5381,0.5382,0.5399,0.5399,0.5379,0.5379,0.5379,0.5379,0.5379,0.5379,0.5339,0.5338,0.5342,0.5343,0.5346,0.5347,0.5348,0.535,0.5353,0.5353,0.5354,0.5358,0.5362,0.5363,0.5364,0.5365,0.5365,0.536,0.5363,0.5378,0.5381,0.5383,0.5384,0.5361,0.5361,0.5346,0.5346,0.5346]},{"header":{"parameterUnit":"m.s-1","parameterCategory":1,"la1":30.2991,"la2":30.254,"lo1":-89.0895,"lo2":-89.0444,"dy":0.0017,"dx":0.0017,"nx":28,"ny":28,"refTime":"2024-02-15T03:00:00:Z","depth":0,"parameterNumber":3,"parameterNumberName":"V-component_of_WINDS"},"data":[0,0,0,0,0,0,0,0,0,0,0,0,0,0,0,0,0,0,0,0,0,0,0,0,0,0,0,0,0,0,0,0,0,0,0,0,0,0,0,0,0,0,0,0,0,0,0,0,0,0,0,0,0,0,0,0,0,0,1.245,1.2451,0,1.2538,1.2539,1.254,1.2551,1.255,1.255,1.2549,1.2638,1.2641,1.2644,0,0,0,0,0,0,0,0,0,0,0,0,0,1.2291,1.2294,1.245,1.2451,1.2453,1.2538,1.2539,1.254,1.2551,1.255,1.2549,1.2548,1.2637,1.2641,1.2644,0,0,0,0,0,0,0,0,0,0,0,0,0,1.2368,1.2295,1.245,1.2468,1.2471,1.2538,1.2539,1.2541,1.2552,1.255,1.2549,1.2548,1.2636,1.264,1.2645,1.2699,0,0,1.2659,1.2661,0,0,0,0,0,0,0,0,1.2363,1.2374,1.2465,1.2467,1.247,1.2532,1.2516,1.2594,1.2552,1.2521,1.2549,1.2547,1.2604,1.2611,1.263,1.2704,1.2707,1.266,1.2663,1.2665,1.2666,0,0,0,0,0,0,0,1.2358,1.237,1.2485,1.2466,1.2469,1.2472,1.2481,1.2531,1.2568,1.2524,1.2525,1.2535,1.2605,1.2626,1.2632,1.2709,1.266,1.2664,1.2667,1.2669,1.2829,1.2831,0,0,0,0,0,0,1.235,1.2365,1.2482,1.2488,1.2413,1.2476,1.2486,1.2514,1.2568,1.2575,1.2536,1.2535,1.2618,1.2627,1.2636,1.2702,1.2665,1.2669,1.2672,1.2828,1.283,1.2831,0,0,0,0,0,0,1.2346,1.236,1.2479,1.2427,1.2442,1.248,1.251,1.2516,1.2537,1.2577,1.2584,1.255,1.2618,1.2629,1.2683,1.2705,1.2671,1.2676,1.2826,1.2828,1.283,1.2836,0,0,0,0,0,0,1.2342,1.2359,1.238,1.2427,1.2445,1.2525,1.2512,1.2519,1.2545,1.2545,1.2592,1.2599,1.2617,1.2676,1.2688,1.2711,1.2679,1.2824,1.2827,1.283,1.2834,1.2838,1.2841,0,0,0,0,0,1.2336,1.2378,1.2381,1.2395,1.2473,1.2526,1.2537,1.2557,1.2547,1.2568,1.2594,1.2597,1.2701,1.2681,1.2695,1.272,1.2823,1.2826,1.283,1.2832,1.2837,1.2841,0,0,0,0,0,0,1.2333,1.2385,1.2389,1.2448,1.2483,1.2528,1.2556,1.2562,1.2601,1.2599,1.2623,1.2633,1.2686,1.2708,1.2686,1.2775,1.2761,1.2767,1.2758,1.2763,1.2767,1.276,1.2683,0,0,0,0,0,1.2339,1.2379,1.2422,1.247,1.2487,1.2519,1.2543,1.2556,1.2593,1.2608,1.2637,1.2673,1.2713,1.2739,1.2779,1.2837,1.2847,1.2861,1.2864,1.2867,1.2872,1.2903,1.2909,1.2842,1.2842,1.2842,0,0,1.2353,1.2386,1.241,1.247,1.2499,1.2539,1.2531,1.2574,1.2604,1.2614,1.2667,1.269,1.2731,1.2787,1.2813,1.2807,1.2893,1.2871,1.2873,1.2877,1.2907,1.2913,1.2919,1.2844,1.2844,1.2843,0,0,1.2398,1.2427,1.247,1.2498,1.2541,1.2562,1.2572,1.2616,1.2632,1.2685,1.2693,1.2729,1.2798,1.2827,1.285,1.2904,1.2909,1.2916,1.2936,1.2966,1.2971,1.2976,1.2995,1.3001,1.2921,1.2921,1.2921,0,1.2409,1.247,1.2491,1.2534,1.2559,1.257,1.2613,1.2639,1.2693,1.271,1.2703,1.279,1.2818,1.288,1.2893,1.2912,1.2924,1.2911,1.2969,1.2974,1.2979,1.2997,1.3004,1.2922,1.2922,1.2922,1.2922,0,1.2481,1.2523,1.2553,1.2604,1.2633,1.2675,1.2702,1.2729,1.2739,1.2759,1.2813,1.2847,1.2893,1.2909,1.2919,1.2972,1.2967,1.2964,1.2951,1.2985,1.3003,1.301,1.2923,1.2923,1.2922,1.2922,0,0,1.2528,1.2589,1.26,1.2622,1.267,1.2703,1.2745,1.279,1.2812,1.2848,1.2884,1.2941,1.2939,1.2965,1.2979,1.3005,1.3044,1.2999,1.3,1.3005,1.3104,1.3105,1.3113,1.3047,1.3049,1.305,1.31,0,1.2578,1.2654,1.2673,1.2738,1.2776,1.2786,1.2823,1.2855,1.2876,1.2911,1.2933,1.2973,1.2967,1.2983,1.3009,1.3034,1.3064,1.303,1.308,1.3081,1.3069,1.3122,1.3124,1.317,1.3107,1.3108,1.3109,0,1.2647,1.2684,1.2752,1.2793,1.281,1.2843,1.2885,1.2919,1.2955,1.2968,1.2997,1.3008,1.3051,1.3035,1.3095,1.3072,1.3093,1.3108,1.311,1.3115,1.3097,1.3128,1.3185,1.3192,1.312,1.3119,1.3118,0,1.2673,1.274,1.279,1.2809,1.2858,1.2881,1.2902,1.2938,1.2963,1.3,1.3016,1.3057,1.308,1.3111,1.3132,1.3118,1.3189,1.3176,1.3201,1.32,1.3215,1.3214,1.3276,1.3229,1.3229,1.3229,1.3229,0,1.2727,1.2768,1.2802,1.2832,1.2878,1.2899,1.2944,1.2966,1.2997,1.3031,1.3042,1.3074,1.31,1.3135,1.3151,1.3197,1.3208,1.3219,1.3223,1.3218,1.3216,1.3232,1.3229,1.3231,1.3231,1.323,1.323,0,1.2765,1.2789,1.2843,1.2885,1.2896,1.2928,1.2964,1.2993,1.3013,1.3056,1.3067,1.3098,1.314,1.3164,1.3216,1.3227,1.3279,1.3281,1.3266,1.3268,1.3291,1.3289,1.3366,1.3377,1.3323,1.3323,1.3324,0,1.2797,1.2829,1.2874,1.2897,1.2919,1.2957,1.2983,1.3004,1.303,1.3074,1.3097,1.314,1.3175,1.324,1.3267,1.3307,1.3311,1.3335,1.3317,1.331,1.331,1.3308,1.3311,1.3338,1.3338,1.3339,1.3339,0,1.2853,1.2862,1.2899,1.2939,1.2969,1.3002,1.3035,1.3053,1.308,1.3109,1.3151,1.3178,1.3231,1.3272,1.3314,1.3336,1.3342,1.3344,1.3352,1.3347,1.3337,1.3342,1.3274,1.3343,1.3342,1.3342,1.3342,1.3342,1.2888,1.2917,1.2952,1.2992,1.3018,1.3048,1.3077,1.31,1.3136,1.3181,1.3191,1.3236,1.327,1.3327,1.335,1.3384,1.338,1.3391,1.3394,1.3397,1.3397,1.3332,1.3392,1.3392,1.3392,1.3392,1.3392,0,1.2944,1.2966,1.3003,1.3048,1.3079,1.3081,1.3117,1.3142,1.3181,1.3213,1.3247,1.3295,1.3335,1.3364,1.3405,1.3427,1.343,1.3437,1.3435,1.344,1.3399,1.3388,1.3433,1.3433,1.3433,1.3433,1.3433,1.3433,1.2976,1.3023,1.3037,1.3097,1.312,1.3163,1.3183,1.3211,1.3236,1.3289,1.3322,1.3341,1.3372,1.3414,1.345,1.3458,1.3472,1.3478,1.3486,1.3447,1.3443,1.3439,1.3428,1.3481,1.3481,1.3524,1.3524,1.3525]}]]